Location: Jetmore Motorplex
(37.9889°N, 99.8876°W)
Time: 03:34:59
(UTC+00:00)

Ariane Rocket - Pass Details

Date: 17 February 2020
Orbit: 759 x 771 km, 98.7° (Epoch: 02 April)

Event Time Altitude Azimuth Distance (km) Brightness Sun altitude
Rises 02:12:08 0° 171° (S) 3,222 6.1 -22.9°
Reaches altitude 10° 02:14:26 10° 174° (S) 2,301 5.4 -23.3°
Maximum altitude 02:19:29 69° 258° (WSW) 823 3.2 -24.3°
Drops below altitude 10° 02:24:35 10° 342° (NNW) 2,320 5.7 -25.3°
Sets 02:26:55 0° 344° (NNW) 3,252 6.5 -25.8°
